[[{"header":{"parameterUnit":"m.s-1","parameterCategory":2,"la1":30.2991,"la2":30.254,"lo1":-89.0895,"lo2":-89.0444,"dy":0.0017,"dx":0.0017,"nx":28,"ny":28,"refTime":"2024-08-25T21:00:00:Z","depth":"0","parameterNumber":2,"parameterNumberName":"U-component_of_CURRENTS"},"data":[0,0,0,0,0,0,0,0,0,0,0,0,0,0,0,0,0,0,0,0,0,0,0,0,0,0,0,0,0,0,0,0,0,0,0,0,0,0,0,0,0,0,0,0,0,0,0,0,0,0,0,0,0,0,0,0,0,0,-0.2396,-0.2396,0,-0.238,-0.2379,-0.2379,-0.236,-0.2361,-0.2361,-0.2361,-0.2273,-0.227,-0.2267,0,0,0,0,0,0,0,0,0,0,0,0,0,-0.2324,-0.2325,-0.2396,-0.2396,-0.2397,-0.238,-0.2379,-0.2378,-0.236,-0.2361,-0.2361,-0.2361,-0.2274,-0.227,-0.2267,0,0,0,0,0,0,0,0,0,0,0,0,0,-0.233,-0.2326,-0.2396,-0.239,-0.239,-0.238,-0.2379,-0.2378,-0.236,-0.2361,-0.2361,-0.2362,-0.2275,-0.2271,-0.2267,-0.2232,0,0,-0.2255,-0.2253,0,0,0,0,0,0,0,0,-0.233,-0.2332,-0.2391,-0.2391,-0.2391,-0.2379,-0.2322,-0.2328,-0.236,-0.2364,-0.2361,-0.2362,-0.2305,-0.2299,-0.2286,-0.2228,-0.2224,-0.2254,-0.2252,-0.225,-0.2249,0,0,0,0,0,0,0,-0.233,-0.2332,-0.2383,-0.2391,-0.2391,-0.236,-0.2361,-0.2322,-0.2326,-0.2364,-0.2364,-0.2373,-0.2304,-0.229,-0.2284,-0.2223,-0.2254,-0.2251,-0.2248,-0.2247,-0.2149,-0.2148,0,0,0,0,0,0,-0.2349,-0.2332,-0.2383,-0.2383,-0.2369,-0.2362,-0.2363,-0.2376,-0.2328,-0.2323,-0.2373,-0.2373,-0.2297,-0.2289,-0.2281,-0.2213,-0.225,-0.2246,-0.2244,-0.2149,-0.2149,-0.2148,0,0,0,0,0,0,-0.2348,-0.2354,-0.2384,-0.2362,-0.2365,-0.2364,-0.2378,-0.2376,-0.2386,-0.2336,-0.2329,-0.2389,-0.2297,-0.2286,-0.2229,-0.221,-0.2244,-0.2241,-0.2149,-0.2149,-0.2148,-0.2092,0,0,0,0,0,0,-0.2346,-0.2354,-0.2364,-0.2364,-0.2367,-0.2392,-0.2378,-0.2376,-0.2393,-0.2392,-0.2347,-0.2338,-0.2296,-0.2235,-0.2225,-0.2205,-0.2238,-0.2149,-0.2149,-0.2149,-0.2094,-0.209,-0.2086,0,0,0,0,0,-0.2343,-0.238,-0.2365,-0.2371,-0.2384,-0.2393,-0.2391,-0.2386,-0.2393,-0.2397,-0.2343,-0.2341,-0.2228,-0.2231,-0.2219,-0.2198,-0.2149,-0.2149,-0.2149,-0.2096,-0.2091,-0.2086,0,0,0,0,0,0,-0.2364,-0.2381,-0.2366,-0.2406,-0.2399,-0.2393,-0.2412,-0.2403,-0.2368,-0.2371,-0.2317,-0.2303,-0.2255,-0.2241,-0.2246,-0.2175,-0.2197,-0.2194,-0.2162,-0.2156,-0.2152,-0.2128,-0.2234,0,0,0,0,0,-0.237,-0.2394,-0.2394,-0.2421,-0.2431,-0.242,-0.2425,-0.242,-0.2396,-0.2384,-0.2333,-0.229,-0.2242,-0.2211,-0.2174,-0.212,-0.2101,-0.211,-0.2106,-0.2103,-0.2079,-0.2025,-0.2012,-0.2147,-0.2147,-0.2147,0,0,-0.2386,-0.2399,-0.2411,-0.2425,-0.2427,-0.2406,-0.2424,-0.2449,-0.2405,-0.2377,-0.2303,-0.2278,-0.223,-0.2163,-0.2143,-0.2146,-0.2059,-0.2102,-0.2099,-0.2076,-0.2022,-0.2009,-0.1997,-0.2147,-0.2147,-0.2147,0,0,-0.2432,-0.2444,-0.2474,-0.2451,-0.246,-0.2436,-0.2449,-0.2435,-0.2412,-0.2344,-0.2312,-0.2263,-0.2191,-0.2131,-0.2098,-0.2056,-0.2049,-0.2073,-0.2011,-0.1959,-0.1946,-0.1935,-0.1907,-0.1894,-0.2059,-0.2059,-0.2059,0,-0.2446,-0.2454,-0.2482,-0.2476,-0.2434,-0.2448,-0.2418,-0.2398,-0.2348,-0.2302,-0.232,-0.2188,-0.2164,-0.2054,-0.2037,-0.2041,-0.2023,-0.2026,-0.1949,-0.1938,-0.1927,-0.1901,-0.1887,-0.2056,-0.2056,-0.2056,-0.2057,0,-0.249,-0.2463,-0.2483,-0.2447,-0.2419,-0.2403,-0.2362,-0.2323,-0.2295,-0.2251,-0.2164,-0.2116,-0.2032,-0.2032,-0.2011,-0.1924,-0.1941,-0.1958,-0.1953,-0.1909,-0.1887,-0.1872,-0.2052,-0.2053,-0.2054,-0.2054,0,0,-0.2574,-0.2518,-0.2513,-0.2427,-0.2381,-0.2342,-0.2284,-0.22,-0.2141,-0.2098,-0.2005,-0.1931,-0.1929,-0.1893,-0.188,-0.183,-0.1753,-0.1856,-0.1855,-0.1814,-0.1649,-0.1599,-0.158,-0.1754,-0.1751,-0.1748,-0.1668,0,-0.2573,-0.25,-0.2491,-0.2362,-0.2284,-0.2235,-0.216,-0.2086,-0.2041,-0.1961,-0.1924,-0.1854,-0.1874,-0.1843,-0.1792,-0.1774,-0.1712,-0.1774,-0.171,-0.1708,-0.1655,-0.1559,-0.1459,-0.1372,-0.1655,-0.1652,-0.1651,0,-0.2592,-0.2508,-0.2391,-0.2217,-0.2193,-0.2128,-0.1967,-0.1912,-0.1835,-0.1812,-0.1751,-0.1749,-0.167,-0.1714,-0.1618,-0.1659,-0.1636,-0.1624,-0.1621,-0.1575,-0.163,-0.146,-0.1336,-0.132,-0.1629,-0.1631,-0.1633,0,-0.2521,-0.2421,-0.2292,-0.2229,-0.2077,-0.2007,-0.1939,-0.1851,-0.1799,-0.1725,-0.1702,-0.1625,-0.1601,-0.155,-0.1546,-0.1573,-0.1459,-0.1498,-0.1419,-0.1419,-0.1317,-0.131,-0.1147,-0.1397,-0.1397,-0.1397,-0.1398,0,-0.2443,-0.2321,-0.2244,-0.213,-0.198,-0.1925,-0.18,-0.1733,-0.1691,-0.1629,-0.1628,-0.158,-0.1559,-0.1515,-0.1501,-0.1412,-0.1418,-0.1369,-0.1369,-0.1299,-0.1292,-0.1264,-0.1299,-0.1394,-0.1395,-0.1396,-0.1396,0,-0.2312,-0.2271,-0.2099,-0.1962,-0.1919,-0.18,-0.1715,-0.1652,-0.1633,-0.1562,-0.1547,-0.1529,-0.1464,-0.1442,-0.137,-0.1349,-0.124,-0.1247,-0.118,-0.117,-0.1072,-0.111,-0.0965,-0.0946,-0.1124,-0.1122,-0.112,0,-0.2214,-0.2122,-0.1976,-0.1896,-0.182,-0.1692,-0.1627,-0.1594,-0.156,-0.1525,-0.1493,-0.1438,-0.1365,-0.1253,-0.1188,-0.1105,-0.1139,-0.0987,-0.0998,-0.1003,-0.1046,-0.1097,-0.1097,-0.0859,-0.0855,-0.0852,-0.085,0,-0.2003,-0.1991,-0.1855,-0.1725,-0.1633,-0.1538,-0.1461,-0.1442,-0.1433,-0.1398,-0.1343,-0.1288,-0.1185,-0.1035,-0.0949,-0.091,-0.0944,-0.092,-0.0918,-0.0792,-0.0839,-0.0844,-0.1016,-0.0822,-0.0825,-0.0827,-0.0829,-0.083,-0.1869,-0.1757,-0.1651,-0.1512,-0.1444,-0.1378,-0.1292,-0.128,-0.1215,-0.114,-0.1166,-0.1005,-0.091,-0.0752,-0.0731,-0.0633,-0.073,-0.0601,-0.064,-0.0688,-0.0663,-0.0782,-0.0598,-0.06,-0.0601,-0.0602,-0.0603,0,-0.1662,-0.1565,-0.1448,-0.1291,-0.1216,-0.1224,-0.1171,-0.1109,-0.1028,-0.0932,-0.0846,-0.0612,-0.0502,-0.0452,-0.0374,-0.0353,-0.0389,-0.0369,-0.0407,-0.0418,-0.0486,-0.0467,-0.0252,-0.0252,-0.0252,-0.0252,-0.0252,-0.0252,-0.1536,-0.1347,-0.1288,-0.1091,-0.1034,-0.0906,-0.0872,-0.0815,-0.0727,-0.0493,-0.0293,-0.0191,-0.017,-0.0195,-0.0196,-0.0208,-0.0256,-0.0231,-0.0313,-0.0358,-0.0383,-0.0408,-0.0394,-0.0168,-0.0168,-0.0198,-0.0198,-0.0198]},{"header":{"parameterUnit":"m.s-1","parameterCategory":2,"la1":30.2991,"la2":30.254,"lo1":-89.0895,"lo2":-89.0444,"dy":0.0017,"dx":0.0017,"nx":28,"ny":28,"refTime":"2024-08-25T21:00:00:Z","depth":"0","parameterNumber":3,"parameterNumberName":"V-component_of_CURRENTS"},"data":[0,0,0,0,0,0,0,0,0,0,0,0,0,0,0,0,0,0,0,0,0,0,0,0,0,0,0,0,0,0,0,0,0,0,0,0,0,0,0,0,0,0,0,0,0,0,0,0,0,0,0,0,0,0,0,0,0,0,-0.1251,-0.1248,0,-0.0863,-0.0858,-0.0852,-0.0656,-0.0657,-0.0658,-0.0659,-0.0418,-0.0411,-0.0403,0,0,0,0,0,0,0,0,0,0,0,0,0,-0.1488,-0.1486,-0.1252,-0.1248,-0.1244,-0.0864,-0.0858,-0.0851,-0.0656,-0.0657,-0.0659,-0.066,-0.042,-0.0411,-0.0403,0,0,0,0,0,0,0,0,0,0,0,0,0,-0.126,-0.1485,-0.1252,-0.111,-0.1094,-0.0865,-0.0857,-0.0849,-0.0656,-0.0657,-0.0659,-0.066,-0.0423,-0.0412,-0.0401,-0.0303,0,0,-0.0368,-0.0363,0,0,0,0,0,0,0,0,-0.1274,-0.1251,-0.1135,-0.112,-0.1102,-0.082,-0.0852,-0.0678,-0.0655,-0.0809,-0.0659,-0.0661,-0.0573,-0.055,-0.0454,-0.0292,-0.0281,-0.0367,-0.036,-0.0355,-0.0352,0,0,0,0,0,0,0,-0.129,-0.1264,-0.1085,-0.1131,-0.1111,-0.0951,-0.0922,-0.0815,-0.0681,-0.0796,-0.0784,-0.076,-0.0563,-0.0464,-0.0447,-0.0278,-0.0367,-0.0357,-0.035,-0.0346,-0.0056,-0.0055,0,0,0,0,0,0,-0.1379,-0.1281,-0.1098,-0.1075,-0.1207,-0.0948,-0.0915,-0.0899,-0.0678,-0.0648,-0.0759,-0.0752,-0.0483,-0.046,-0.0439,-0.0339,-0.0355,-0.0345,-0.0339,-0.0057,-0.0055,-0.0054,0,0,0,0,0,0,-0.1385,-0.1366,-0.1114,-0.1178,-0.1137,-0.0947,-0.0927,-0.0891,-0.079,-0.0651,-0.0621,-0.0699,-0.0483,-0.0454,-0.0337,-0.0328,-0.034,-0.033,-0.0058,-0.0056,-0.0055,-0.0122,0,0,0,0,0,0,-0.1394,-0.1371,-0.1368,-0.1185,-0.1137,-0.0964,-0.0926,-0.0883,-0.0779,-0.0766,-0.0589,-0.0567,-0.0482,-0.0354,-0.0326,-0.0313,-0.0321,-0.0059,-0.0057,-0.0055,-0.0122,-0.0123,-0.0125,0,0,0,0,0,-0.1403,-0.1393,-0.137,-0.1347,-0.1147,-0.0963,-0.0919,-0.078,-0.0776,-0.0701,-0.0607,-0.0573,-0.0323,-0.0342,-0.031,-0.0295,-0.006,-0.0058,-0.0055,-0.0121,-0.0123,-0.0125,0,0,0,0,0,0,-0.1478,-0.1368,-0.1339,-0.1295,-0.1143,-0.0934,-0.0858,-0.0785,-0.064,-0.0646,-0.0535,-0.0503,-0.0404,-0.0335,-0.0361,-0.0207,-0.0195,-0.0186,-0.0256,-0.0256,-0.0258,-0.0283,-0.0312,0,0,0,0,0,-0.1507,-0.1475,-0.1327,-0.1281,-0.122,-0.1046,-0.0956,-0.0864,-0.0726,-0.0661,-0.0549,-0.0449,-0.0362,-0.0303,-0.02,-0.0099,-0.0081,-0.0076,-0.0077,-0.0079,-0.0078,-0.0056,-0.0057,-0.0046,-0.0046,-0.0046,0,0,-0.1527,-0.1459,-0.1442,-0.1295,-0.1171,-0.1043,-0.0989,-0.0853,-0.0759,-0.0665,-0.0514,-0.0444,-0.0338,-0.0228,-0.018,-0.0171,-0.0072,-0.0076,-0.0079,-0.0076,-0.0054,-0.0055,-0.0057,-0.0045,-0.0045,-0.0045,0,0,-0.1507,-0.1487,-0.1429,-0.1307,-0.1145,-0.1042,-0.1018,-0.0818,-0.0744,-0.0598,-0.0537,-0.0464,-0.0286,-0.0215,-0.0164,-0.0112,-0.0087,-0.0089,-0.0104,-0.0084,-0.0086,-0.0087,-0.0076,-0.0076,-0.0085,-0.0085,-0.0085,0,-0.1529,-0.144,-0.1372,-0.1255,-0.1167,-0.1057,-0.0944,-0.0836,-0.0627,-0.0591,-0.0567,-0.0367,-0.0282,-0.0191,-0.017,-0.0118,-0.0108,-0.0111,-0.0091,-0.0091,-0.0092,-0.008,-0.0079,-0.0088,-0.0088,-0.0088,-0.0087,0,-0.1442,-0.1351,-0.1299,-0.1147,-0.1047,-0.0927,-0.0805,-0.0719,-0.0662,-0.0569,-0.0476,-0.0361,-0.0255,-0.0225,-0.017,-0.0129,-0.0123,-0.0107,-0.0099,-0.0098,-0.0084,-0.0082,-0.0092,-0.0091,-0.0091,-0.009,0,0,-0.1513,-0.1289,-0.1261,-0.1171,-0.0985,-0.0892,-0.0793,-0.0666,-0.0632,-0.0494,-0.0444,-0.0309,-0.0293,-0.0234,-0.018,-0.0153,-0.0146,-0.0132,-0.0129,-0.0143,-0.0114,-0.0074,-0.0068,-0.0136,-0.0136,-0.0136,-0.011,0,-0.1443,-0.124,-0.1158,-0.0976,-0.0858,-0.0774,-0.0695,-0.0596,-0.0532,-0.046,-0.0409,-0.033,-0.0286,-0.0258,-0.0225,-0.0161,-0.014,-0.0155,-0.0092,-0.009,-0.0073,-0.0064,-0.0033,-0.0004,-0.0107,-0.0107,-0.0106,0,-0.1355,-0.1237,-0.1056,-0.0894,-0.0849,-0.0762,-0.0677,-0.0586,-0.0509,-0.0471,-0.042,-0.0372,-0.0308,-0.0285,-0.0197,-0.0213,-0.0167,-0.0128,-0.0126,-0.0062,-0.0045,-0.0015,0.0005,0.006,-0.0102,-0.0103,-0.0103,0,-0.1386,-0.1163,-0.1041,-0.0963,-0.0778,-0.0744,-0.0682,-0.0598,-0.056,-0.0492,-0.0479,-0.0399,-0.0365,-0.0301,-0.0206,-0.0208,-0.0126,-0.012,-0.0044,-0.0042,0.0014,0.0021,0.0079,-0.0071,-0.0071,-0.0071,-0.0071,0,-0.1306,-0.1197,-0.1053,-0.0963,-0.0889,-0.0773,-0.0722,-0.0659,-0.0602,-0.0573,-0.0501,-0.0467,-0.0371,-0.0305,-0.0227,-0.0122,-0.0141,-0.0044,-0.0028,-0.0007,-0.0003,0.0074,0.0091,-0.007,-0.007,-0.007,-0.0071,0,-0.1289,-0.1173,-0.1043,-0.0904,-0.0872,-0.083,-0.0747,-0.0722,-0.0666,-0.0633,-0.062,-0.0526,-0.0427,-0.0326,-0.0212,-0.0146,-0.0007,-0.0011,0.0005,0.0024,0.0144,0.0156,0.0221,0.0275,0.0066,0.0067,0.0068,0,-0.1238,-0.1166,-0.1044,-0.1006,-0.0937,-0.0871,-0.0836,-0.076,-0.074,-0.066,-0.0655,-0.0554,-0.0442,-0.0261,-0.0133,0.0008,0.005,0.0099,0.0112,0.0161,0.0186,0.0175,0.0215,0.0151,0.0152,0.0154,0.0155,0,-0.1185,-0.117,-0.108,-0.1016,-0.0973,-0.0931,-0.0878,-0.0867,-0.0793,-0.0729,-0.0629,-0.0528,-0.0357,-0.0159,0.0005,0.0082,0.0146,0.013,0.0182,0.0262,0.0255,0.0311,0.0111,0.0166,0.0165,0.0164,0.0164,0.0163,-0.1191,-0.1149,-0.1072,-0.1014,-0.0989,-0.0976,-0.0925,-0.0854,-0.0776,-0.0589,-0.0563,-0.0276,-0.0159,0.0103,0.0156,0.0287,0.0256,0.0335,0.0344,0.0327,0.0389,0.0214,0.0291,0.029,0.029,0.029,0.0289,0,-0.1166,-0.1117,-0.1071,-0.1011,-0.1012,-0.099,-0.0935,-0.0832,-0.0681,-0.0435,-0.0238,0.0118,0.0248,0.0358,0.0459,0.0507,0.0502,0.0524,0.0515,0.0548,0.0398,0.0413,0.0522,0.0522,0.0522,0.0522,0.0521,0.0521,-0.1139,-0.1075,-0.1041,-0.1025,-0.1012,-0.0961,-0.0912,-0.0698,-0.047,0.0023,0.0402,0.0625,0.0709,0.0617,0.0667,0.0672,0.0725,0.069,0.0728,0.062,0.0602,0.0586,0.0605,0.0752,0.0752,0.0882,0.0883,0.0884]}],[{"header":{"parameterUnit":"m.s-1","parameterCategory":2,"la1":30.2991,"la2":30.254,"lo1":-89.0895,"lo2":-89.0444,"dy":0.0017,"dx":0.0017,"nx":28,"ny":28,"refTime":"2024-08-25T21:00:00:Z","depth":"2","parameterNumber":2,"parameterNumberName":"U-component_of_CURRENTS"},"data":[0,0,0,0,0,0,0,0,0,0,0,0,0,0,0,0,0,0,0,0,0,0,0,0,0,0,0,0,0,0,0,0,0,0,0,0,0,0,0,0,0,0,0,0,0,0,0,0,0,0,0,0,0,0,0,0,0,0,-0.1567,-0.1567,0,-0.1582,-0.1583,-0.1584,-0.1644,-0.1644,-0.1645,-0.1646,-0.1681,-0.1681,-0.1682,0,0,0,0,0,0,0,0,0,0,0,0,0,-0.1468,-0.1471,-0.1567,-0.1567,-0.1566,-0.1582,-0.1583,-0.1584,-0.1644,-0.1645,-0.1645,-0.1646,-0.1681,-0.1681,-0.1682,0,0,0,0,0,0,0,0,0,0,0,0,0,-0.1508,-0.1472,-0.1567,-0.1591,-0.1593,-0.1582,-0.1583,-0.1584,-0.1644,-0.1645,-0.1645,-0.1646,-0.168,-0.1681,-0.1682,-0.167,0,0,-0.1684,-0.1684,0,0,0,0,0,0,0,0,-0.1506,-0.1513,-0.1588,-0.1589,-0.1591,-0.1604,-0.156,-0.1611,-0.1643,-0.1634,-0.1646,-0.1646,-0.165,-0.1653,-0.1667,-0.1671,-0.1673,-0.1684,-0.1684,-0.1684,-0.1685,0,0,0,0,0,0,0,-0.1504,-0.1512,-0.1583,-0.1587,-0.1589,-0.1557,-0.1567,-0.157,-0.1645,-0.1635,-0.1637,-0.1624,-0.1653,-0.1667,-0.1668,-0.1673,-0.1684,-0.1684,-0.1685,-0.1685,-0.1779,-0.1781,0,0,0,0,0,0,-0.1489,-0.1511,-0.1582,-0.1582,-0.1539,-0.1559,-0.1569,-0.1606,-0.1645,-0.1648,-0.1623,-0.1626,-0.1665,-0.1668,-0.167,-0.1704,-0.1684,-0.1685,-0.1685,-0.1777,-0.178,-0.1782,0,0,0,0,0,0,-0.1488,-0.1498,-0.1581,-0.1535,-0.1543,-0.156,-0.1601,-0.1606,-0.1629,-0.1633,-0.164,-0.164,-0.1666,-0.1669,-0.1718,-0.1704,-0.1685,-0.1686,-0.1775,-0.1778,-0.1781,-0.1741,0,0,0,0,0,0,-0.1486,-0.1499,-0.1527,-0.1537,-0.1545,-0.1597,-0.1599,-0.1605,-0.1614,-0.162,-0.165,-0.1654,-0.1667,-0.1718,-0.1719,-0.1704,-0.1686,-0.1772,-0.1776,-0.178,-0.174,-0.1743,-0.1745,0,0,0,0,0,-0.1484,-0.1515,-0.1529,-0.1537,-0.1583,-0.1597,-0.1601,-0.1617,-0.1614,-0.1639,-0.1674,-0.1653,-0.1744,-0.172,-0.1721,-0.1706,-0.177,-0.1775,-0.178,-0.1739,-0.1742,-0.1745,0,0,0,0,0,0,-0.1473,-0.1523,-0.154,-0.1583,-0.1597,-0.1604,-0.1613,-0.1617,-0.1662,-0.1669,-0.168,-0.1688,-0.1723,-0.1737,-0.1711,-0.1754,-0.1752,-0.1758,-0.1721,-0.1724,-0.1727,-0.1675,-0.1687,0,0,0,0,0,-0.1484,-0.1529,-0.1556,-0.1584,-0.1596,-0.1604,-0.1609,-0.1624,-0.165,-0.167,-0.1698,-0.1727,-0.174,-0.1753,-0.1782,-0.1799,-0.1771,-0.1797,-0.1799,-0.1801,-0.1766,-0.1727,-0.1719,-0.1798,-0.1798,-0.1798,0,0,-0.148,-0.1509,-0.1534,-0.1584,-0.1595,-0.1619,-0.1614,-0.1629,-0.1649,-0.1664,-0.1721,-0.1737,-0.1753,-0.1784,-0.1799,-0.1792,-0.1774,-0.1807,-0.1807,-0.1771,-0.173,-0.1722,-0.1714,-0.1801,-0.18,-0.18,0,0,-0.1464,-0.153,-0.1552,-0.1601,-0.1623,-0.1623,-0.1628,-0.1662,-0.1686,-0.1737,-0.1743,-0.175,-0.1812,-0.1796,-0.1794,-0.1827,-0.1791,-0.1854,-0.181,-0.1773,-0.1764,-0.1755,-0.1729,-0.1718,-0.185,-0.185,-0.185,0,-0.1466,-0.1508,-0.1551,-0.1601,-0.1619,-0.1627,-0.1642,-0.1675,-0.1724,-0.1719,-0.1766,-0.1787,-0.1803,-0.1764,-0.1787,-0.1819,-0.1806,-0.1785,-0.1767,-0.1759,-0.175,-0.1725,-0.1713,-0.1849,-0.1849,-0.1849,-0.1849,0,-0.147,-0.153,-0.1547,-0.1614,-0.1632,-0.1662,-0.1695,-0.1727,-0.1743,-0.1749,-0.1753,-0.1782,-0.1775,-0.1789,-0.1797,-0.174,-0.1754,-0.1771,-0.1738,-0.1738,-0.1715,-0.1703,-0.1847,-0.1847,-0.1848,-0.1848,0,0,-0.1451,-0.1533,-0.1556,-0.1584,-0.1656,-0.1664,-0.1694,-0.1689,-0.1682,-0.1738,-0.1712,-0.1727,-0.171,-0.1708,-0.1706,-0.1672,-0.1615,-0.1697,-0.1695,-0.1632,-0.1539,-0.1485,-0.1468,-0.1629,-0.1627,-0.1625,-0.155,0,-0.1448,-0.1514,-0.1548,-0.1597,-0.1628,-0.167,-0.1685,-0.1692,-0.1701,-0.1704,-0.1681,-0.1676,-0.1689,-0.1679,-0.1641,-0.1629,-0.1581,-0.1633,-0.1581,-0.1579,-0.1498,-0.1451,-0.1343,-0.1261,-0.1539,-0.1537,-0.1536,0,-0.1458,-0.15,-0.154,-0.1584,-0.1598,-0.1618,-0.1614,-0.1636,-0.1628,-0.1639,-0.1604,-0.1607,-0.1549,-0.1583,-0.1506,-0.1545,-0.1524,-0.1514,-0.1512,-0.1453,-0.1501,-0.1308,-0.123,-0.1516,-0.1518,-0.1519,-0.1521,0,-0.1414,-0.1497,-0.1506,-0.1557,-0.1607,-0.1605,-0.1602,-0.1601,-0.1599,-0.1581,-0.1575,-0.152,-0.1504,-0.1463,-0.145,-0.1478,-0.1377,-0.1417,-0.1336,-0.1334,-0.1222,-0.1213,-0.1331,-0.1331,-0.1331,-0.1332,-0.1332,0,-0.1424,-0.1453,-0.1498,-0.1542,-0.1525,-0.1572,-0.1541,-0.1548,-0.1543,-0.1514,-0.1524,-0.149,-0.1475,-0.1433,-0.1417,-0.1331,-0.1345,-0.1289,-0.129,-0.1213,-0.1204,-0.1414,-0.1425,-0.1329,-0.133,-0.133,-0.1331,0,-0.1394,-0.1443,-0.1461,-0.1506,-0.1513,-0.1501,-0.1508,-0.1495,-0.1505,-0.1472,-0.1465,-0.1453,-0.1391,-0.1369,-0.1305,-0.1279,-0.1216,-0.1182,-0.1096,-0.1086,-0.121,-0.122,-0.1069,-0.1066,-0.1064,-0.1062,-0.106,0,-0.1367,-0.1386,-0.1423,-0.1423,-0.1444,-0.1444,-0.1439,-0.146,-0.1451,-0.144,-0.1417,-0.1367,-0.1296,-0.1188,-0.1122,-0.1041,-0.1122,-0.0917,-0.0928,-0.1155,-0.1173,-0.1187,-0.1201,-0.0783,-0.0779,-0.0776,-0.0773,0,-0.131,-0.1332,-0.1352,-0.1353,-0.1353,-0.1346,-0.1349,-0.1341,-0.1362,-0.1337,-0.128,-0.1222,-0.112,-0.0964,-0.0881,-0.0841,-0.0923,-0.0849,-0.1073,-0.0873,-0.088,-0.09,-0.0923,-0.0745,-0.0748,-0.075,-0.0751,-0.0753,-0.1245,-0.1235,-0.126,-0.1249,-0.1253,-0.1233,-0.1191,-0.121,-0.1168,-0.1109,-0.1123,-0.0999,-0.0931,-0.0723,-0.0655,-0.0623,-0.0703,-0.0678,-0.0689,-0.0704,-0.069,-0.0692,-0.0521,-0.0522,-0.0524,-0.0525,-0.0526,0,-0.1149,-0.1157,-0.115,-0.1135,-0.1103,-0.1132,-0.1114,-0.1055,-0.098,-0.095,-0.0873,-0.069,-0.056,-0.0523,-0.0401,-0.037,-0.0398,-0.0371,-0.0398,-0.0425,-0.0449,-0.0426,-0.0185,-0.0184,-0.0183,-0.0183,0,0,-0.1097,-0.1064,-0.1065,-0.0982,-0.0973,-0.0881,-0.0845,-0.0775,-0.0729,-0.0617,-0.0546,-0.0542,-0.0502,-0.0345,-0.0291,-0.0216,-0.0336,-0.0209,-0.0478,-0.0537,-0.0561,-0.0611,-0.0602,0,0,0,0,0]},{"header":{"parameterUnit":"m.s-1","parameterCategory":2,"la1":30.2991,"la2":30.254,"lo1":-89.0895,"lo2":-89.0444,"dy":0.0017,"dx":0.0017,"nx":28,"ny":28,"refTime":"2024-08-25T21:00:00:Z","depth":"2","parameterNumber":3,"parameterNumberName":"V-component_of_CURRENTS"},"data":[0,0,0,0,0,0,0,0,0,0,0,0,0,0,0,0,0,0,0,0,0,0,0,0,0,0,0,0,0,0,0,0,0,0,0,0,0,0,0,0,0,0,0,0,0,0,0,0,0,0,0,0,0,0,0,0,0,0,-0.0206,-0.0206,0,-0.0206,-0.0206,-0.0206,-0.0172,-0.0171,-0.017,-0.0169,-0.0065,-0.0064,-0.0062,0,0,0,0,0,0,0,0,0,0,0,0,0,-0.0193,-0.0193,-0.0206,-0.0206,-0.0206,-0.0206,-0.0206,-0.0206,-0.0172,-0.0171,-0.017,-0.0169,-0.0066,-0.0064,-0.0062,0,0,0,0,0,0,0,0,0,0,0,0,0,-0.0197,-0.0193,-0.0206,-0.0188,-0.0186,-0.0205,-0.0206,-0.0206,-0.0172,-0.0171,-0.0169,-0.0168,-0.0067,-0.0064,-0.0061,-0.0075,0,0,-0.0053,-0.0052,0,0,0,0,0,0,0,0,-0.0197,-0.0198,-0.0191,-0.0189,-0.0187,-0.0186,-0.0163,-0.0156,-0.0173,-0.0179,-0.0169,-0.0167,-0.0096,-0.0091,-0.0098,-0.007,-0.0065,-0.0053,-0.0051,-0.005,-0.0049,0,0,0,0,0,0,0,-0.0197,-0.0198,-0.0207,-0.0191,-0.0189,-0.0185,-0.0184,-0.0162,-0.0145,-0.0179,-0.0176,-0.0174,-0.0095,-0.0101,-0.0095,-0.0064,-0.0053,-0.005,-0.0049,-0.0048,0.0017,0.0017,0,0,0,0,0,0,-0.0195,-0.0198,-0.0207,-0.0207,-0.0187,-0.0186,-0.0185,-0.0189,-0.0148,-0.014,-0.0175,-0.0172,-0.0106,-0.0098,-0.0091,-0.0065,-0.005,-0.0047,-0.0046,0.0017,0.0017,0.0017,0,0,0,0,0,0,-0.0195,-0.0196,-0.0207,-0.0201,-0.0202,-0.0188,-0.0193,-0.019,-0.019,-0.0146,-0.0137,-0.0177,-0.0105,-0.0095,-0.0069,-0.0062,-0.0046,-0.0044,0.0017,0.0017,0.0017,-0.0037,0,0,0,0,0,0,-0.0195,-0.0197,-0.0202,-0.0201,-0.0202,-0.0224,-0.0194,-0.0191,-0.019,-0.0187,-0.0144,-0.0134,-0.0103,-0.0074,-0.0067,-0.0057,-0.0041,0.0017,0.0017,0.0017,-0.0036,-0.0039,-0.0042,0,0,0,0,0,-0.0195,-0.0212,-0.0203,-0.0204,-0.0209,-0.0225,-0.0226,-0.0211,-0.0192,-0.0203,-0.0168,-0.0135,-0.0067,-0.0072,-0.0064,-0.0053,0.0016,0.0017,0.0017,-0.0034,-0.0038,-0.0042,0,0,0,0,0,0,-0.0215,-0.021,-0.02,-0.0216,-0.022,-0.0219,-0.0227,-0.0216,-0.0202,-0.019,-0.0144,-0.0132,-0.0107,-0.0076,-0.0082,-0.0033,-0.0016,-0.0014,-0.0057,-0.0061,-0.0064,-0.0065,-0.0039,0,0,0,0,0,-0.0221,-0.0232,-0.0226,-0.0243,-0.0242,-0.0235,-0.0239,-0.0231,-0.0217,-0.0209,-0.0178,-0.0137,-0.0103,-0.0079,-0.0053,-0.0031,-0.0005,-0.0015,-0.0018,-0.0021,-0.0015,0.0017,0.0017,0.0017,0.0017,0.0017,0,0,-0.0235,-0.0234,-0.024,-0.0248,-0.0247,-0.0258,-0.0234,-0.0246,-0.0245,-0.0199,-0.0187,-0.0155,-0.0103,-0.0079,-0.0062,-0.0048,-0.0009,-0.0021,-0.0024,-0.0016,0.0017,0.0017,0.0017,0.0017,0.0017,0.0017,0,0,-0.0276,-0.0265,-0.0287,-0.0292,-0.0294,-0.0283,-0.0285,-0.0282,-0.0267,-0.0263,-0.0217,-0.0182,-0.0145,-0.0099,-0.007,-0.0074,-0.0035,-0.0062,-0.0069,-0.0039,-0.0039,-0.0038,-0.0015,-0.0012,-0.0054,-0.0055,-0.0055,0,-0.0292,-0.0313,-0.0299,-0.0322,-0.0319,-0.0293,-0.031,-0.0299,-0.0288,-0.0267,-0.0263,-0.0191,-0.0151,-0.0095,-0.0094,-0.008,-0.0062,-0.0062,-0.0044,-0.0043,-0.0042,-0.0018,-0.0014,-0.0057,-0.0057,-0.0057,-0.0056,0,-0.0347,-0.0361,-0.0375,-0.0382,-0.0381,-0.0394,-0.0368,-0.0358,-0.0332,-0.0311,-0.0268,-0.0225,-0.0172,-0.0155,-0.0125,-0.0084,-0.0075,-0.0062,-0.0038,-0.0045,-0.002,-0.0014,-0.0061,-0.006,-0.0059,-0.0058,0,0,-0.0392,-0.0408,-0.0413,-0.0415,-0.0407,-0.0409,-0.0396,-0.0367,-0.0343,-0.0326,-0.0294,-0.0238,-0.0206,-0.0171,-0.0125,-0.0094,-0.0072,-0.0075,-0.0072,-0.0059,-0.0013,0.0008,0.0016,-0.0061,-0.006,-0.006,-0.0003,0,-0.0435,-0.0477,-0.0467,-0.0489,-0.05,-0.0459,-0.0444,-0.0412,-0.0374,-0.034,-0.0278,-0.0239,-0.0212,-0.0185,-0.015,-0.0088,-0.0059,-0.0089,-0.0001,0.0002,0.0016,0.0023,0.0032,0.0085,0.0002,0.0003,0.0004,0,-0.0494,-0.0506,-0.0539,-0.052,-0.0518,-0.0521,-0.0465,-0.045,-0.0386,-0.0357,-0.0306,-0.0262,-0.0197,-0.0186,-0.009,-0.0113,-0.0067,-0.0028,-0.0025,0.0021,0.0033,0.0082,0.0097,0.0013,0.0012,0.0011,0.0011,0,-0.0533,-0.055,-0.0567,-0.057,-0.0552,-0.0541,-0.0515,-0.0458,-0.0428,-0.0366,-0.0341,-0.0266,-0.0224,-0.0162,-0.0077,-0.0085,0.0016,0.0018,0.008,0.0081,0.0122,0.0126,0.0078,0.0078,0.0077,0.0077,0.0077,0,-0.0587,-0.0601,-0.0587,-0.0605,-0.0597,-0.0571,-0.0547,-0.0509,-0.0454,-0.041,-0.0353,-0.0304,-0.0218,-0.0146,-0.0081,0.002,0.0016,0.0084,0.0102,0.0103,0.0104,0.0071,0.007,0.0079,0.0079,0.0079,0.0078,0,-0.0645,-0.0645,-0.0658,-0.0637,-0.0628,-0.0622,-0.0575,-0.0551,-0.0498,-0.0443,-0.0425,-0.033,-0.0231,-0.0144,-0.0032,0.0022,0.011,0.0144,0.0135,0.0151,0.0152,0.0147,0.0216,0.0217,0.0219,0.0219,0.022,0,-0.0676,-0.0697,-0.0684,-0.0685,-0.068,-0.0662,-0.0644,-0.0586,-0.0551,-0.0447,-0.042,-0.0318,-0.0213,-0.0051,0.0049,0.0165,0.0152,0.0231,0.0224,0.0158,0.0168,0.0162,0.0155,0.0252,0.0253,0.0254,0.0255,0,-0.0721,-0.0719,-0.0723,-0.0729,-0.0722,-0.0702,-0.0668,-0.064,-0.0556,-0.0484,-0.0365,-0.0273,-0.012,0.0028,0.0156,0.0217,0.0211,0.0251,0.02,0.0212,0.0196,0.0205,0.0197,0.0262,0.0261,0.0261,0.026,0.026,-0.0736,-0.0746,-0.0752,-0.0753,-0.0746,-0.0723,-0.0686,-0.0623,-0.0539,-0.0384,-0.0318,-0.0154,-0.0048,0.0161,0.0239,0.0288,0.0285,0.0309,0.0305,0.03,0.0291,0.0278,0.0356,0.0356,0.0356,0.0356,0.0356,0,-0.0748,-0.0759,-0.0768,-0.0766,-0.0758,-0.075,-0.0682,-0.0611,-0.0481,-0.0321,-0.017,-0.0031,0.012,0.0198,0.03,0.0367,0.0344,0.0364,0.0332,0.0326,0.032,0.031,0.0381,0.0381,0.0381,0.0381,0,0,-0.0753,-0.0769,-0.0773,-0.0767,-0.0763,-0.0715,-0.0662,-0.0529,-0.0387,-0.0183,-0.0053,0.0086,0.017,0.0243,0.0318,0.0362,0.0329,0.0358,0.0339,0.0291,0.0285,0.0295,0.0274,0,0,0,0,0]}],[{"header":{"parameterUnit":"m.s-1","parameterCategory":2,"la1":30.2991,"la2":30.254,"lo1":-89.0895,"lo2":-89.0444,"dy":0.0017,"dx":0.0017,"nx":28,"ny":28,"refTime":"2024-08-25T21:00:00:Z","depth":"4","parameterNumber":2,"parameterNumberName":"U-component_of_CURRENTS"},"data":[0,0,0,0,0,0,0,0,0,0,0,0,0,0,0,0,0,0,0,0,0,0,0,0,0,0,0,0,0,0,0,0,0,0,0,0,0,0,0,0,0,0,0,0,0,0,0,0,0,0,0,0,0,0,0,0,0,0,-0.0791,-0.0791,0,-0.0848,-0.0849,-0.085,-0.0869,-0.0869,-0.0868,-0.0867,-0.0934,-0.0936,-0.0939,0,0,0,0,0,0,0,0,0,0,0,0,0,-0.0734,-0.0735,-0.0791,-0.0791,-0.0792,-0.0848,-0.0849,-0.085,-0.0869,-0.0869,-0.0868,-0.0867,-0.0933,-0.0936,-0.0939,0,0,0,0,0,0,0,0,0,0,0,0,0,-0.0775,-0.0735,-0.0791,-0.0806,-0.0807,-0.0848,-0.0849,-0.0851,-0.0869,-0.0869,-0.0868,-0.0867,-0.0932,-0.0936,-0.0939,-0.0977,0,0,-0.095,-0.0951,0,0,0,0,0,0,0,0,-0.0772,-0.0777,-0.0803,-0.0805,-0.0806,-0.0848,-0.0853,-0.0892,-0.087,-0.0849,-0.0867,-0.0867,-0.0904,-0.091,-0.0928,-0.098,-0.0983,-0.095,-0.0952,-0.0954,-0.0955,0,0,0,0,0,0,0,-0.0769,-0.0775,-0.0817,-0.0803,-0.0805,-0.0821,-0.0826,-0.0861,-0.0884,-0.0851,-0.0852,-0.0853,-0.0906,-0.0924,-0.0929,-0.0984,-0.095,-0.0953,-0.0955,-0.0956,-0.1099,-0.1101,0,0,0,0,0,0,-0.0755,-0.0772,-0.0815,-0.0819,-0.0783,-0.0822,-0.0828,-0.0838,-0.0883,-0.0888,-0.0854,-0.0854,-0.0919,-0.0925,-0.0932,-0.1,-0.0954,-0.0957,-0.0959,-0.1097,-0.11,-0.1101,0,0,0,0,0,0,-0.0754,-0.0759,-0.0813,-0.0793,-0.0801,-0.0824,-0.0835,-0.084,-0.0866,-0.0884,-0.089,-0.0875,-0.0918,-0.0927,-0.0991,-0.1001,-0.0958,-0.0961,-0.1095,-0.1098,-0.1101,-0.1123,0,0,0,0,0,0,-0.0752,-0.0758,-0.0771,-0.0793,-0.0801,-0.0846,-0.0836,-0.0841,-0.0865,-0.0866,-0.0905,-0.0909,-0.0918,-0.0986,-0.0994,-0.1005,-0.0964,-0.1093,-0.1097,-0.11,-0.112,-0.1126,-0.1131,0,0,0,0,0,-0.075,-0.0762,-0.0772,-0.0777,-0.0815,-0.0847,-0.0854,-0.0869,-0.0867,-0.0889,-0.0925,-0.0909,-0.1011,-0.0991,-0.1,-0.1012,-0.1092,-0.1096,-0.1099,-0.1117,-0.1124,-0.1131,0,0,0,0,0,0,-0.0744,-0.0766,-0.0777,-0.0796,-0.0825,-0.0849,-0.0867,-0.0878,-0.0924,-0.093,-0.0945,-0.0955,-0.1008,-0.1019,-0.0996,-0.1065,-0.1043,-0.1049,-0.1053,-0.1061,-0.1066,-0.1059,-0.0967,0,0,0,0,0,-0.075,-0.0765,-0.0792,-0.081,-0.0825,-0.0851,-0.0869,-0.0884,-0.0918,-0.0937,-0.0967,-0.1,-0.1031,-0.1053,-0.1086,-0.1136,-0.1116,-0.1147,-0.1152,-0.1157,-0.1159,-0.1147,-0.1151,-0.1114,-0.1114,-0.1114,0,0,-0.0753,-0.0765,-0.0776,-0.081,-0.0834,-0.087,-0.0861,-0.0894,-0.0924,-0.0938,-0.1,-0.1025,-0.1051,-0.1102,-0.1125,-0.1113,-0.1157,-0.1162,-0.1165,-0.1165,-0.1151,-0.1155,-0.1157,-0.1117,-0.1116,-0.1116,0,0,-0.076,-0.0781,-0.0797,-0.0828,-0.0864,-0.0888,-0.0899,-0.0942,-0.0961,-0.103,-0.1035,-0.1073,-0.114,-0.115,-0.1163,-0.1223,-0.1186,-0.123,-0.1253,-0.1242,-0.1244,-0.1245,-0.1217,-0.1215,-0.1233,-0.1233,-0.1233,0,-0.0765,-0.0791,-0.0809,-0.0838,-0.0869,-0.0897,-0.0937,-0.0964,-0.1024,-0.1046,-0.1056,-0.1139,-0.1159,-0.1194,-0.1217,-0.1231,-0.1216,-0.1221,-0.1245,-0.1247,-0.1248,-0.1218,-0.1216,-0.1234,-0.1234,-0.1234,-0.1234,0,-0.0787,-0.0818,-0.0832,-0.0882,-0.0921,-0.0959,-0.1,-0.1044,-0.1078,-0.1103,-0.1158,-0.1191,-0.1233,-0.1242,-0.1254,-0.1272,-0.1254,-0.1249,-0.1219,-0.1252,-0.122,-0.1217,-0.1236,-0.1236,-0.1235,-0.1235,0,0,-0.0777,-0.0835,-0.0846,-0.0884,-0.0951,-0.099,-0.1044,-0.1101,-0.113,-0.1185,-0.1217,-0.1273,-0.1277,-0.1292,-0.1294,-0.1293,-0.1287,-0.1282,-0.128,-0.1237,-0.1249,-0.1158,-0.1147,-0.1284,-0.1284,-0.1284,-0.1219,0,-0.0795,-0.0854,-0.0882,-0.0962,-0.1004,-0.1056,-0.1103,-0.1158,-0.1197,-0.1235,-0.1251,-0.1285,-0.1294,-0.1309,-0.1311,-0.1293,-0.1284,-0.1304,-0.1239,-0.1237,-0.1138,-0.1142,-0.1284,-0.1217,-0.1216,-0.1216,-0.1216,0,-0.0811,-0.0852,-0.0922,-0.1008,-0.1032,-0.1087,-0.1175,-0.1218,-0.1261,-0.1283,-0.1311,-0.1315,-0.1325,-0.1323,-0.1302,-0.1314,-0.129,-0.1271,-0.1268,-0.1173,-0.1141,-0.1182,-0.1211,-0.1211,-0.1212,-0.1212,-0.1212,0,-0.08,-0.0887,-0.0946,-0.0979,-0.1073,-0.1121,-0.1178,-0.124,-0.1263,-0.1302,-0.1313,-0.1327,-0.1322,-0.1308,-0.1277,-0.129,-0.1234,-0.1241,-0.1133,-0.1125,-0.1216,-0.1215,-0.1221,-0.1221,-0.1221,-0.1221,-0.1221,0,-0.0802,-0.0856,-0.0951,-0.0983,-0.1065,-0.1134,-0.12,-0.1249,-0.1287,-0.1296,-0.1328,-0.1312,-0.1319,-0.1287,-0.1269,-0.118,-0.1223,-0.1129,-0.1102,-0.1227,-0.1229,-0.1213,-0.1213,-0.1219,-0.1219,-0.122,-0.122,0,-0.0772,-0.0831,-0.0905,-0.1014,-0.1056,-0.1117,-0.121,-0.1237,-0.1281,-0.1287,-0.1292,-0.1293,-0.124,-0.1227,-0.1182,-0.1144,-0.1087,-0.1048,-0.1166,-0.1148,-0.0989,-0.0992,-0.0917,-0.0913,-0.091,-0.0907,-0.0905,0,-0.0756,-0.0787,-0.0914,-0.0963,-0.1016,-0.1108,-0.1152,-0.1226,-0.1237,-0.1254,-0.1237,-0.1203,-0.1189,-0.1038,-0.1051,-0.0985,-0.098,-0.0948,-0.099,-0.0976,-0.0958,-0.0966,-0.0972,-0.09,-0.0899,-0.0898,-0.0897,0,-0.0717,-0.0766,-0.0831,-0.0921,-0.0992,-0.1051,-0.1119,-0.1117,-0.1167,-0.1216,-0.113,-0.1078,-0.1007,-0.0956,-0.0905,-0.0872,-0.0971,-0.0915,-0.0922,-0.0961,-0.0955,-0.0942,-0.0952,-0.0886,-0.0888,-0.0889,-0.089,0,-0.069,-0.0727,-0.0803,-0.0882,-0.0951,-0.0965,-0.1016,-0.1017,-0.1031,-0.1054,-0.1016,-0.0977,-0.0982,-0.0894,-0.0852,-0.0803,-0.0797,-0.0784,-0.0798,-0.081,-0.0807,-0.0785,-0.0631,0,0,0,0,0,-0.0652,-0.0691,-0.0756,-0.0829,-0.088,-0.0907,-0.0974,-0.1013,-0.1061,-0.0968,-0.0987,-0.0912,-0.0822,-0.0808,-0.0731,-0.0816,-0.0814,-0.0727,-0.0811,-0.0825,-0.0838,-0.0845,0,0,0,0,0,0,-0.0635,-0.0696,-0.0733,-0.0745,-0.0768,-0.0803,-0.0831,-0.0869,-0.0826,-0.0872,-0.082,-0.0854,-0.0778,-0.0833,-0.0705,-0.0704,-0.0739,-0.072,-0.0717,-0.0817,-0.0829,-0.0839,-0.0852,0,0,0,0,0]},{"header":{"parameterUnit":"m.s-1","parameterCategory":2,"la1":30.2991,"la2":30.254,"lo1":-89.0895,"lo2":-89.0444,"dy":0.0017,"dx":0.0017,"nx":28,"ny":28,"refTime":"2024-08-25T21:00:00:Z","depth":"4","parameterNumber":3,"parameterNumberName":"V-component_of_CURRENTS"},"data":[0,0,0,0,0,0,0,0,0,0,0,0,0,0,0,0,0,0,0,0,0,0,0,0,0,0,0,0,0,0,0,0,0,0,0,0,0,0,0,0,0,0,0,0,0,0,0,0,0,0,0,0,0,0,0,0,0,0,-0.0175,-0.0175,0,-0.0179,-0.018,-0.018,-0.016,-0.0159,-0.0159,-0.0158,-0.0099,-0.0098,-0.0098,0,0,0,0,0,0,0,0,0,0,0,0,0,-0.0147,-0.0148,-0.0175,-0.0175,-0.0175,-0.0179,-0.018,-0.018,-0.016,-0.0159,-0.0159,-0.0158,-0.01,-0.0099,-0.0098,0,0,0,0,0,0,0,0,0,0,0,0,0,-0.0158,-0.0148,-0.0175,-0.0164,-0.0163,-0.0179,-0.018,-0.018,-0.016,-0.0159,-0.0158,-0.0157,-0.01,-0.0099,-0.0097,-0.0111,0,0,-0.0093,-0.0093,0,0,0,0,0,0,0,0,-0.0157,-0.0159,-0.0166,-0.0165,-0.0164,-0.0167,-0.0148,-0.0153,-0.0161,-0.0163,-0.0158,-0.0157,-0.0116,-0.0113,-0.012,-0.0108,-0.0105,-0.0093,-0.0092,-0.0092,-0.0091,0,0,0,0,0,0,0,-0.0156,-0.0158,-0.0178,-0.0166,-0.0165,-0.0159,-0.0159,-0.0149,-0.0146,-0.0163,-0.0161,-0.0159,-0.0115,-0.0121,-0.0118,-0.0105,-0.0093,-0.0092,-0.0091,-0.0091,-0.0085,-0.0085,0,0,0,0,0,0,-0.0154,-0.0158,-0.0178,-0.0178,-0.0156,-0.016,-0.016,-0.0168,-0.0147,-0.0143,-0.016,-0.0159,-0.0124,-0.0119,-0.0115,-0.011,-0.0092,-0.0091,-0.009,-0.0084,-0.0085,-0.0085,0,0,0,0,0,0,-0.0154,-0.0156,-0.0178,-0.0166,-0.0168,-0.0161,-0.017,-0.0169,-0.0171,-0.0145,-0.014,-0.0164,-0.0123,-0.0117,-0.0105,-0.0108,-0.009,-0.0089,-0.0083,-0.0084,-0.0085,-0.011,0,0,0,0,0,0,-0.0153,-0.0157,-0.0164,-0.0167,-0.0169,-0.019,-0.0171,-0.017,-0.0171,-0.0169,-0.0147,-0.014,-0.0121,-0.0107,-0.0103,-0.0105,-0.0088,-0.0082,-0.0084,-0.0085,-0.0109,-0.0112,-0.0115,0,0,0,0,0,-0.0152,-0.0169,-0.0165,-0.0167,-0.0179,-0.019,-0.0191,-0.0183,-0.0173,-0.018,-0.0161,-0.0141,-0.0112,-0.0106,-0.0102,-0.0104,-0.0082,-0.0083,-0.0085,-0.0107,-0.0111,-0.0115,0,0,0,0,0,0,-0.0166,-0.0168,-0.0164,-0.0182,-0.0185,-0.0186,-0.0192,-0.0187,-0.0181,-0.0176,-0.0148,-0.0141,-0.0134,-0.0119,-0.0114,-0.0107,-0.0094,-0.0095,-0.0113,-0.0117,-0.012,-0.0105,-0.0087,0,0,0,0,0,-0.0172,-0.0184,-0.0183,-0.02,-0.0199,-0.0196,-0.02,-0.0197,-0.019,-0.0187,-0.017,-0.0152,-0.014,-0.0127,-0.0119,-0.0113,-0.0082,-0.0113,-0.0116,-0.0118,-0.0105,-0.0063,-0.006,-0.009,-0.009,-0.009,0,0,-0.0182,-0.0186,-0.0193,-0.0203,-0.0203,-0.0212,-0.0196,-0.0206,-0.0211,-0.0181,-0.0181,-0.0166,-0.0144,-0.0138,-0.0133,-0.0121,-0.0097,-0.012,-0.0122,-0.0107,-0.0064,-0.006,-0.0057,-0.0091,-0.0091,-0.0091,0,0,-0.0212,-0.021,-0.0229,-0.023,-0.0233,-0.023,-0.0232,-0.0233,-0.0228,-0.0233,-0.0208,-0.0186,-0.0182,-0.0153,-0.014,-0.0154,-0.0121,-0.0164,-0.0157,-0.0117,-0.0114,-0.011,-0.0079,-0.0073,-0.0158,-0.0158,-0.0158,0,-0.0222,-0.0244,-0.0237,-0.0251,-0.025,-0.0237,-0.0251,-0.025,-0.0248,-0.0233,-0.0236,-0.0201,-0.0184,-0.015,-0.0157,-0.0158,-0.0136,-0.0144,-0.0119,-0.0115,-0.0111,-0.008,-0.0072,-0.0159,-0.0159,-0.0159,-0.0159,0,-0.0261,-0.0275,-0.0284,-0.0294,-0.0296,-0.0306,-0.0295,-0.0292,-0.0284,-0.0271,-0.0247,-0.0222,-0.019,-0.0191,-0.0178,-0.0142,-0.0138,-0.0133,-0.0105,-0.0109,-0.0077,-0.0068,-0.0161,-0.0161,-0.016,-0.016,0,0,-0.0288,-0.0307,-0.031,-0.0313,-0.0314,-0.0318,-0.0319,-0.0304,-0.0286,-0.028,-0.0252,-0.023,-0.0202,-0.0185,-0.0162,-0.0126,-0.0086,-0.0119,-0.0117,-0.0081,-0.0005,-0.0017,-0.0008,-0.008,-0.0078,-0.0077,0.0002,0,-0.0316,-0.0349,-0.035,-0.0369,-0.0377,-0.0355,-0.0352,-0.0334,-0.0311,-0.0282,-0.0239,-0.0213,-0.0205,-0.0186,-0.0148,-0.0102,-0.0064,-0.0108,-0.0013,-0.0009,-0.0013,0.0002,-0.0072,0.0008,0.0011,0.0012,0.0013,0,-0.0349,-0.0364,-0.0394,-0.0389,-0.0388,-0.0398,-0.0364,-0.0361,-0.0309,-0.0287,-0.0241,-0.0209,-0.0151,-0.0151,-0.0056,-0.0088,-0.0046,-0.0011,-0.0007,0.0003,-0.0005,0.0015,0.0029,0.0028,0.0026,0.0025,0.0024,0,-0.0365,-0.0387,-0.0409,-0.0411,-0.0411,-0.041,-0.0403,-0.0362,-0.0339,-0.0285,-0.0254,-0.0189,-0.0148,-0.0089,-0.0023,-0.0037,0.0078,0.007,0.0104,0.0103,0.0102,0.0098,0.0145,0.0145,0.0145,0.0145,0.0144,0,-0.0389,-0.0403,-0.042,-0.0433,-0.0441,-0.0429,-0.0418,-0.0396,-0.0345,-0.0299,-0.0256,-0.0202,-0.013,-0.006,-0.001,0.0074,0.0092,0.0118,0.0129,0.0086,0.0079,0.0108,0.0102,0.0148,0.0147,0.0146,0.0146,0,-0.0405,-0.0421,-0.0444,-0.0452,-0.0458,-0.0463,-0.0443,-0.0417,-0.0373,-0.031,-0.0291,-0.0201,-0.0111,-0.0042,0.0064,0.0096,0.017,0.0195,0.0144,0.0149,0.0166,0.0158,0.0246,0.0247,0.0247,0.0247,0.0247,0,-0.0417,-0.0434,-0.0463,-0.0479,-0.049,-0.0492,-0.0483,-0.0443,-0.0402,-0.0298,-0.0258,-0.0165,-0.0102,0.0045,0.0099,0.0193,0.0201,0.0236,0.0203,0.0177,0.018,0.0171,0.0163,0.0248,0.0248,0.0248,0.0248,0,-0.043,-0.0445,-0.0464,-0.05,-0.0511,-0.0502,-0.0481,-0.0446,-0.0368,-0.0336,-0.0204,-0.0122,-0.0021,0.0063,0.0131,0.0197,0.0209,0.0239,0.0239,0.0208,0.018,0.018,0.0172,0.0249,0.0249,0.0249,0.0249,0,-0.0433,-0.0453,-0.0484,-0.0507,-0.0517,-0.0488,-0.0481,-0.0407,-0.0358,-0.0234,-0.0193,-0.0083,-0.0021,0.0067,0.0133,0.0188,0.0197,0.021,0.0211,0.0211,0.0164,0.012,0.0196,0,0,0,0,0,-0.043,-0.0455,-0.0483,-0.0499,-0.0499,-0.0502,-0.0458,-0.0433,-0.0357,-0.026,-0.0217,-0.0117,0.0006,0.0054,0.0111,0.0114,0.0183,0.0178,0.0193,0.0256,0.0254,0.0203,0,0,0,0,0,0,-0.0432,-0.0466,-0.0482,-0.0472,-0.0477,-0.0464,-0.0433,-0.0388,-0.0322,-0.0247,-0.0183,-0.0124,-0.0018,-0.0034,0.0103,0.012,0.0134,0.0235,0.0236,0.0257,0.0255,0.0254,0.0201,0,0,0,0,0]}]]